Regional Weather Roundup
Issued by NWS

Home | Current Version | Previous Version | Text Only | Print | Product List | Glossary Off
Versions: 1 2 3 4 5 6 7 8 9 10 11 12 13 14 15 16 17 18 19 20 21 22 23 24 25 26 27 28 29 30 31 32 33 34 35 36 37 38 39 40 41 42 43 44 45 46 47 48 49 50

000
ASUS45 KCYS 190710
RWRWY

WYOMING REGIONAL WEATHER ROUNDUP
NATIONAL WEATHER SERVICE CHEYENNE WY
100 AM MDT FRI SEP 19 2014

NOTE:  "FAIR" INDICATES FEW OR NO CLOUDS BELOW 12,000 FEET
WITH NO SIGNIFICANT WEATHER AND/OR OBSTRUCTIONS TO VISIBILITY.

WYZ001-190800-
YELLOWSTONE NATIONAL PARK

CITY           SKY/WX    TMP DP  RH WIND       PRES   REMARKS
LK YELLOWSTONE   N/A     47  43  86 CALM      30.16R
W YELLOWSTONE  NOT AVBL

$$
WYZ002>013-054>058-071-098>099-190800-
NORTHERN WYOMING

CITY           SKY/WX    TMP DP  RH WIND       PRES   REMARKS
JACKSON        CLOUDY    52  50  93 SW3       30.07F
CODY             N/A    N/A N/A N/A MISG        N/A
GREYBULL       CLOUDY    66  54  65 SE3       29.86R
WORLAND        CLOUDY    63  55  75 SW8       29.91R
SHERIDAN       CLOUDY    60  56  86 SW8       29.85F
BUFFALO        LGT RAIN  61  53  75 W9        29.93F
GILLETTE       CLOUDY    62  51  67 CALM      29.88R
HULETT         FAIR      61  52  72 MISG      29.88
NEWCASTLE      FAIR      63  43  48 NW6       29.81

$$
WYZ014>020-022>026-101>103-190800-
CENTRAL WYOMING

CITY           SKY/WX    TMP DP  RH WIND       PRES   REMARKS
BIG PINEY      CLOUDY    55  46  71 NW9       30.12S
PINEDALE       CLOUDY    52  46  82 N22G31    30.11F
DUBOIS         PTSUNNY   55  39  54 W33G45    30.03F
LANDER         CLOUDY    63  46  54 W10       29.99R
RIVERTON       CLOUDY    64  45  49 NW23      29.98R
CASPER         PTCLDY    60  47  61 NE5       29.97R
DOUGLAS        PTCLDY    64  47  53 N12       29.92R

$$
WYZ021-027>030-104>119-190800-
SOUTHERN WYOMING

CITY           SKY/WX    TMP DP  RH WIND       PRES   REMARKS
EVANSTON       MOCLDY    53  48  83 CALM      30.15R
KEMMERER       CLOUDY    54  43  66 N6        30.14R
FORT BRIDGER   CLOUDY    59  47  63 N9G16     30.15R THUNDER
ROCK SPRINGS   MOCLDY    59  43  55 NW22G33   30.09R
DIXON          FAIR      55  38  52 CALM      30.07S
RAWLINS        CLEAR     59  33  37 SW6       30.03S
SARATOGA       FAIR      52  36  54 S5        30.07S
LARAMIE        MOCLDY    53  37  54 SW6       30.07S
CHEYENNE       CLEAR     60  41  49 W8        30.00R
TORRINGTON     CLEAR     58  56  93 E3        29.85R
PINE BLUFFS    FAIR      59  43  55 S12       29.94F

$$


USA.gov is the U.S. government's official web portal to all federal, state and local government web resources and services.